Flag for Germany Weather past 2 weeks in Rheinfelden (Baden), Baden-Württemberg, Germany

Now
68 °F

Clear.


Feels Like: 68 °F
Forecast: 54 / 86 °F
Wind: 7 mph from Northwest

Location: Bale-Mulhouse

Current Time: Jun 3, 2015 at 11:43:02 PM

Latest Report: Jun 3, 2015 at 11:00 PM


Visibility: 10 mi

Pressure: 30.24 "Hg

Humidity: 64%

Dew point: 55 °F

Location of Rheinfelden (Baden)Location

Historic Weather in Rheinfelden (Baden) — Graph

°F

Rheinfelden (Baden) temperature yesterday

Maximum temperature yesterday: 82 °F (at 4:30 PM)
Minimum temperature yesterday: 55 °F (at 1:30 AM)
Average temperature yesterday: 69 °F

Past Weeks' High & Low Weather Summary

 TemperatureHumidityPressure
High82 °F (Jun 2, 4:30 PM)100% (May 21, 7:00 AM)30.30 "Hg (May 21, 7:00 AM)
Low39 °F (May 22, 5:00 AM)31% (May 29, 4:00 PM)29.83 "Hg (May 29, 3:30 PM)
Average59 °F67%30.08 "Hg
* Reported May 19 10:00 PM — Jun 3 10:30 PM, Rheinfelden (Baden), Weather by CustomWeather, © 2015

Note: Actual official high and low records may vary slightly from our data, if they occured in-between our weather recording intervals... More about our weather records

Advertising

Rheinfelden (Baden) weather history for previous 24 hours

 ConditionsComfort  
Time TempWeatherWind HumidityBarometerVisibility
10:30 PM
Wed, Jun 3
68 °FClear.7 mph69%30.24 "Hg10 mi
10:00 PM70 °FSunny.6 mph60%30.24 "Hg10 mi
9:30 PM73 °FSunny.7 mph50%30.21 "Hg10 mi
9:00 PM75 °FSunny.6 mph44%30.21 "Hg10 mi
8:30 PM77 °FSunny.6 mph39%30.21 "Hg10 mi
8:00 PM79 °FPassing clouds.9 mph37%30.18 "HgN/A
7:30 PM81 °FSunny.9 mph37%30.18 "Hg10 mi
7:00 PM81 °FPassing clouds.10 mph34%30.18 "HgN/A
6:30 PM82 °FPassing clouds.9 mph32%30.18 "HgN/A
6:00 PM82 °FPassing clouds.10 mph35%30.18 "HgN/A
5:30 PM82 °FPassing clouds.10 mph35%30.18 "HgN/A
5:00 PM82 °FPassing clouds.12 mph35%30.18 "HgN/A
4:30 PM82 °FPassing clouds.10 mph37%30.18 "HgN/A
4:00 PM81 °FPassing clouds.10 mph34%30.21 "HgN/A
3:30 PM82 °FPassing clouds.12 mph35%30.21 "HgN/A
3:00 PM82 °FPassing clouds.12 mph37%30.21 "HgN/A
2:30 PM81 °FPassing clouds.9 mph37%30.21 "HgN/A
2:00 PM81 °FPassing clouds.9 mph42%30.21 "HgN/A
1:30 PM81 °FPassing clouds.9 mph39%30.21 "HgN/A
1:00 PM81 °FPassing clouds.10 mph37%30.21 "HgN/A
12:30 PM79 °FPassing clouds.13 mph37%30.21 "HgN/A
12:00 PM79 °FPassing clouds.13 mph37%30.21 "HgN/A
11:30 AM77 °FPassing clouds.12 mph39%30.21 "HgN/A
11:00 AM77 °FPassing clouds.7 mph42%30.21 "HgN/A
10:30 AM75 °FPassing clouds.8 mph39%30.21 "HgN/A
10:00 AM75 °FPassing clouds.10 mph36%30.21 "HgN/A
9:30 AM73 °FSunny.6 mph44%30.21 "Hg10 mi
9:00 AM72 °FPassing clouds.5 mph57%30.21 "HgN/A
8:30 AM70 °FSunny.3 mph60%30.21 "Hg10 mi
8:00 AM66 °FSunny.3 mph68%30.21 "Hg10 mi
7:30 AM63 °FSunny.2 mph77%30.18 "Hg10 mi
7:00 AM59 °FSunny.3 mph88%30.18 "Hg10 mi
6:30 AM57 °FClear.No wind82%30.18 "Hg10 mi
6:00 AM57 °FClear.2 mph88%30.18 "Hg10 mi
5:30 AM57 °FClear.6 mph88%30.15 "Hg10 mi
5:00 AM57 °FPassing clouds.3 mph88%30.15 "HgN/A
4:30 AM57 °FClear.5 mph88%30.15 "Hg10 mi
4:00 AM57 °FPassing clouds.3 mph82%30.15 "HgN/A
3:30 AM59 °FClear.3 mph82%30.15 "Hg10 mi
3:00 AM61 °FClear.5 mph77%30.12 "Hg10 mi
2:30 AM61 °FClear.5 mph77%30.12 "Hg10 mi
2:00 AM61 °FClear.5 mph77%30.12 "Hg10 mi
1:30 AM61 °FClear.5 mph77%30.12 "Hg10 mi
1:00 AM61 °FClear.2 mph77%30.12 "Hg10 mi
12:30 AM61 °FClear.2 mph77%30.12 "Hg10 mi
12:00 AM63 °FClear.5 mph73%30.12 "Hg10 mi
11:46 PM
Tue, Jun 2
63 °FClear.3 mph73%30.12 "Hg10 mi
11:00 PM63 °FClear.2 mph73%30.12 "Hg10 mi
Weather by CustomWeather, © 2015

See weather overviewHow to use our weather pages